Content
SEND FEEDBACK

Daily
Averages
Monthly
Summary
United States of America

DE QUEEN, ARKANSAS


Home > North America > United States > Arkansas
Elevation: 420 feet     Latitude: 34 02N     Longitude: 094 20W

WEATHER
 
SELECT A DAY
Number of Records: 156,175;   Date Range: 7/12/01 - 9/18/14
 
SHARE

PRINT THIS DATA

[ ← Previous Day ]
WEATHER ALMANAC - JULY 22, 2014
[ Next Day → ]
[ °C ]   °F
Weather ElementAverageHighLow
Temperature72.1 °F89.1 °F (2:53 pm)64 °F (6:28 am)
Dewpoint68.6 °F73.9 °F (8:53 pm)64 °F (6:28 am)
Humidity90.5 %100 % (12:53 am)53 % (3:53 pm)
Barometer30.05 in30.08 in (7:34 am)30.01 in (5:53 pm)
Wind Speed0.8 mph6.9 mph (2:53 pm)
Weather ElementAverage
Visibility3.5 mi
Wind DirectionNNE (25.6 °)

Weather ElementTotal
Precipitation---
Cooling Degree Days11.6 (Base 65)
Growing Degree Days26.6 (Base 50)
Averaged from 57 records on July 22, 2014
WEATHER CONDITIONS BREAKOUT
WIND DIRECTION BREAKOUT
WEATHER BY HOUR - JULY 22, 2014
[ °C ]   °F
Local TimeTemperatureDewpointHumidityBarometerVisibilityWind DirectionWind SpeedGust SpeedPrecipitationEventsConditions
12:06 AM70.0 °F69.1 °F97 %30.05 in3.0 miCalmClear
12:53 AM69.1 °F69.1 °F100 %30.04 in1.2 miCalmClear
1:06 AM69.1 °F69.1 °F100 %30.06 in2.5 miCalmScattered Clouds
1:27 AM69.1 °F68.0 °F96 %30.05 in1.0 miCalmMostly Cloudy
1:53 AM69.1 °F68.0 °F96 %30.04 in2.0 miCalmMostly Cloudy
2:08 AM69.1 °F68.0 °F96 %30.05 in5.0 miCalmMostly Cloudy
2:21 AM69.1 °F68.0 °F96 %30.05 in1.5 miCalmMostly Cloudy
2:31 AM68.0 °F68.0 °F100 %30.05 in0.5 miCalmFogFog
2:53 AM68.0 °F68.0 °F100 %30.03 in0.8 miCalmPartly Cloudy
2:57 AM68.0 °F68.0 °F100 %30.04 in0.5 miCalmFogFog
3:05 AM68.0 °F68.0 °F100 %30.04 in0.2 miCalmFogFog
3:53 AM66.9 °F66.0 °F97 %30.02 in0.2 miEast (90°)3.5 mphFogFog
4:02 AM66.9 °F66.0 °F97 %30.04 in1.0 miCalmMist
4:05 AM66.9 °F66.0 °F97 %30.04 in2.0 miCalmScattered Clouds
4:10 AM66.9 °F66.0 °F97 %30.04 in1.0 miCalmMist
4:17 AM66.9 °F66.9 °F100 %30.04 in0.5 miCalmFogFog
4:46 AM66.0 °F66.0 °F100 %30.04 in1.0 miCalmClear
4:49 AM66.2 °F66.2 °F100 %30.05 in3.0 miCalmClear
4:53 AM66.0 °F66.0 °F100 %30.04 in4.0 miCalmClear
4:56 AM66.0 °F66.0 °F100 %30.05 in1.8 miCalmPartly Cloudy
4:58 AM66.0 °F64.9 °F96 %30.05 in0.8 miCalmMist
5:08 AM66.0 °F66.0 °F100 %30.05 in0.2 miCalmFogFog
5:32 AM66.0 °F66.0 °F100 %30.05 in1.5 miCalmOvercast
5:42 AM64.9 °F64.9 °F100 %30.05 in0.2 miCalmFogFog
5:53 AM64.9 °F64.9 °F100 %30.05 in0.2 miCalmFogFog
6:01 AM66.0 °F64.9 °F96 %30.06 in0.5 miCalmFogFog
6:15 AM66.0 °F64.9 °F96 %30.06 in1.5 miCalmScattered Clouds
6:28 AM64.0 °F64.0 °F100 %30.06 in0.8 miCalmMist
6:38 AM64.9 °F64.0 °F97 %30.07 in0.2 miCalmFogFog
6:53 AM66.0 °F64.9 °F96 %30.06 in0.5 miCalmFogFog
6:57 AM66.0 °F66.0 °F100 %30.07 in1.2 miCalmPartly Cloudy
7:06 AM66.0 °F66.0 °F100 %30.07 in2.5 miCalmClear
7:34 AM68.0 °F68.0 °F100 %30.08 in3.0 miCalmClear
7:53 AM69.1 °F69.1 °F100 %30.07 in5.0 miCalmClear
9:53 AM78.1 °F71.1 °F79 %30.08 in10.0 miCalmClear
10:53 AM81.0 °F71.1 °F72 %30.07 in10.0 miVariable3.5 mphPartly Cloudy
11:43 AM84.0 °F71.1 °F65 %30.08 in10.0 miNW (320°)3.5 mphMostly Cloudy
11:53 AM82.0 °F69.1 °F65 %30.07 in10.0 miWSW (250°)3.5 mphOvercast
12:53 PM84.9 °F69.1 °F59 %30.06 in10.0 miCalmScattered Clouds
1:53 PM87.1 °F70.0 °F57 %30.06 in10.0 miSW (220°)4.6 mphScattered Clouds
2:53 PM89.1 °F71.1 °F55 %30.04 in10.0 miEast (100°)6.9 mphPartly Cloudy
3:53 PM89.1 °F70.0 °F53 %30.03 in10.0 miVariable3.5 mphPartly Cloudy
4:53 PM89.1 °F71.1 °F55 %30.02 in10.0 miVariable3.5 mphPartly Cloudy
5:53 PM88.0 °F71.1 °F57 %30.01 in10.0 miSSE (150°)5.8 mphClear
6:53 PM87.1 °F71.1 °F59 %30.01 in10.0 miSSE (150°)3.5 mphClear
7:53 PM82.9 °F73.0 °F72 %30.01 in10.0 miSouth (180°)3.5 mphClear
8:53 PM77.0 °F73.9 °F90 %30.01 in8.0 miCalmClear
9:53 PM75.9 °F73.9 °F94 %30.03 in6.0 miCalmClear
10:53 PM73.9 °F73.0 °F97 %30.03 in2.0 miCalmClear
10:57 PM73.9 °F73.0 °F97 %30.04 in0.8 miCalmClear
11:14 PM73.0 °F72.0 °F96 %30.05 in0.2 miCalmFogFog
11:33 PM73.0 °F72.0 °F96 %30.05 in1.0 miCalmMist
11:36 PM73.0 °F72.0 °F96 %30.05 in2.5 miCalmScattered Clouds
11:43 PM72.0 °F72.0 °F100 %30.06 in4.0 miCalmPartly Cloudy
11:47 PM71.6 °F71.6 °F100 %30.06 in1.2 miCalmScattered Clouds
11:49 PM71.6 °F71.6 °F100 %30.06 in0.8 miCalmMist
11:53 PM72.0 °F71.1 °F97 %30.04 in0.5 miCalmFogFog
Hourly data recorded from KDEQ, located miles away from De Queen, Arkansas







STORIES FROM OUR PARTNERS